,,Stat6,,Stat2,,Stat8,,Stat9,,Stat10,,Wind1,,Wind1,
time,status,PA1M_AVG,status,PR1M_SUM,status,RH1M_AVG,status,SR1M_AVG,status,TA1M_AVG,status,W1dAve1m,status,W1sAve1m,
2005-07-12, 00:00:00,VALID,919.994,VALID,0,VALID,99.203,VALID,-0.0679233,VALID,20.1409,VALID,179,VALID,0.539595,
2005-07-12, 00:01:00,VALID,919.985,VALID,0,VALID,99.222,VALID,-0.101885,VALID,20.1347,VALID,143,VALID,0.604226,
2005-07-12, 00:02:00,VALID,919.966,VALID,0,VALID,99.2564,VALID,-0.0849042,VALID,20.1056,VALID,120,VALID,0.577943,
2005-07-12, 00:03:00,VALID,919.951,VALID,0,VALID,99.2386,VALID,-0.0679233,VALID,20.0962,VALID,103,VALID,0.742369,
2005-07-12, 00:04:00,VALID,919.93,VALID,0,VALID,99.236,VALID,-0.101885,VALID,20.0564,VALID,96,VALID,0.796494,
2005-07-12, 00:05:00,VALID,919.911,VALID,0,VALID,99.2742,VALID,-0.0679233,VALID,20.054,VALID,91,VALID,0.600472,
2005-07-12, 00:06:00,VALID,919.885,VALID,0,VALID,99.3568,VALID,-0.101885,VALID,20.0408,VALID,91,VALID,0.606641,
2005-07-12, 00:07:00,VALID,919.863,VALID,0,VALID,99.3784,VALID,-0.0679233,VALID,20.0376,VALID,90,VALID,0.54524,
2005-07-12, 00:08:00,VALID,919.849,VALID,0,VALID,99.3492,VALID,-0.0849042,VALID,20.0246,VALID,91,VALID,0.642773,
2005-07-12, 00:09:00,VALID,919.815,VALID,0,VALID,99.3301,VALID,-0.0849042,VALID,20.0217,VALID,90,VALID,0.627362,
2005-07-12, 00:10:00,VALID,919.817,VALID,0,VALID,99.3416,VALID,-0.0849042,VALID,20.012,VALID,90,VALID,0.472202,
2005-07-12, 00:11:00,VALID,919.81,VALID,0,VALID,99.4102,VALID,-0.0849042,VALID,20.009,VALID,84,VALID,0.432231,
2005-07-12, 00:12:00,VALID,919.811,VALID,0,VALID,99.456,VALID,-0.0169808,VALID,19.9986,VALID,83,VALID,0.513021,
2005-07-12, 00:13:00,VALID,919.821,VALID,0,VALID,99.4764,VALID,0.0509425,VALID,20.0003,VALID,86,VALID,0.62173,
2005-07-12, 00:14:00,VALID,919.816,VALID,0,VALID,99.5272,VALID,0.0339617,VALID,20.0005,VALID,104,VALID,0.676172,
2005-07-12, 00:15:00,VALID,919.815,VALID,0,VALID,99.662,VALID,0.0339617,VALID,19.9841,VALID,120,VALID,0.684775,
2005-07-12, 00:16:00,VALID,919.802,VALID,0,VALID,99.7904,VALID,0.0339617,VALID,19.9874,VALID,123,VALID,0.534961,
2005-07-12, 00:17:00,VALID,919.78,VALID,0,VALID,99.8769,VALID,0.0339617,VALID,19.9976,VALID,109,VALID,0.219512,
2005-07-12, 00:18:00,VALID,919.755,VALID,0,VALID,99.9519,VALID,0,VALID,20.0038,VALID,110,VALID,0.49782,
2005-07-12, 00:19:00,VALID,919.736,VALID,0,VALID,99.9977,VALID,0.0509425,VALID,19.9965,VALID,132,VALID,0.59561,
2005-07-12, 00:20:00,VALID,919.692,VALID,0,VALID,100,VALID,0.0509425,VALID,20.0038,VALID,105,VALID,0.531072,
2005-07-12, 00:21:00,VALID,919.664,VALID,0,VALID,100,VALID,0.0509425,VALID,19.9946,VALID,103,VALID,0.297852,
2005-07-12, 00:22:00,VALID,919.637,VALID,0,VALID,100,VALID,0.0679233,VALID,19.9807,VALID,103,VALID,0.385352,
2005-07-12, 00:23:00,VALID,919.601,VALID,0,VALID,100,VALID,0.0339617,VALID,19.9946,VALID,103,VALID,0.150694,
2005-07-12, 00:24:00,VALID,919.581,VALID,0,VALID,100,VALID,0.0339617,VALID,19.9772,VALID,103,VALID,0.562305,
2005-07-12, 00:25:00,VALID,919.569,VALID,0,VALID,100,VALID,0.0509425,VALID,19.9744,VALID,104,VALID,0.352653,
2005-07-12, 00:26:00,VALID,919.547,VALID,0,VALID,100,VALID,0.0169808,VALID,19.965,VALID,84,VALID,0.73758,
2005-07-12, 00:27:00,VALID,919.529,VALID,0,VALID,100,VALID,0.0169808,VALID,19.9588,VALID,72,VALID,0.744731,
2005-07-12, 00:28:00,VALID,919.515,VALID,0,VALID,100,VALID,-0.0339617,VALID,19.97,VALID,65,VALID,0.564062,
2005-07-12, 00:29:00,VALID,919.491,VALID,0,VALID,100,VALID,-0.0849042,VALID,19.9697,VALID,74,VALID,0.284801,
2005-07-12, 00:30:00,VALID,919.48,VALID,0,VALID,100,VALID,-0.0849042,VALID,19.9832,VALID,92,VALID,0.56955,
2005-07-12, 00:31:00,VALID,919.453,VALID,0,VALID,100,VALID,-0.0849042,VALID,19.9692,VALID,90,VALID,0.249645,
2005-07-12, 00:32:00,VALID,919.418,VALID,0,VALID,100,VALID,-0.0849042,VALID,19.9794,VALID,90,VALID,0,
2005-07-12, 00:33:00,VALID,919.401,VALID,0,VALID,100,VALID,-0.0509425,VALID,19.9856,VALID,90,VALID,0.00446429,
2005-07-12, 00:34:00,VALID,919.372,VALID,0,VALID,100,VALID,-0.0509425,VALID,20.0085,VALID,90,VALID,0,
2005-07-12, 00:35:00,VALID,919.349,VALID,0,VALID,100,VALID,-0.0509425,VALID,20.0314,VALID,90,VALID,0,
2005-07-12, 00:36:00,VALID,919.318,VALID,0,VALID,100,VALID,-0.0679233,VALID,20.0537,VALID,90,VALID,0,
2005-07-12, 00:37:00,VALID,919.295,VALID,0,VALID,100,VALID,-0.101885,VALID,20.0766,VALID,90,VALID,0.0362043,
2005-07-12, 00:38:00,VALID,919.259,VALID,0,VALID,100,VALID,-0.101885,VALID,20.1089,VALID,90,VALID,0.00228659,
2005-07-12, 00:39:00,VALID,919.241,VALID,0,VALID,100,VALID,-0.101885,VALID,20.1121,VALID,90,VALID,0,
2005-07-12, 00:40:00,VALID,919.225,VALID,0,VALID,99.9827,VALID,-0.101885,VALID,20.0989,VALID,90,VALID,0.0325838,
2005-07-12, 00:41:00,VALID,919.195,VALID,0,VALID,99.9654,VALID,-0.101885,VALID,20.1121,VALID,90,VALID,0.0090554,
2005-07-12, 00:42:00,VALID,919.174,VALID,0,VALID,99.984,VALID,-0.0339617,VALID,20.1344,VALID,90,VALID,0,
2005-07-12, 00:43:00,VALID,919.142,VALID,0,VALID,99.9049,VALID,0.0169808,VALID,20.1362,VALID,90,VALID,0,
2005-07-12, 00:44:00,VALID,919.113,VALID,0,VALID,99.6404,VALID,0.0339617,VALID,20.1294,VALID,90,VALID,0.188045,
2005-07-12, 00:45:00,VALID,919.067,VALID,0,VALID,99.4891,VALID,0,VALID,20.1173,VALID,90,VALID,0.450817,
2005-07-12, 00:46:00,VALID,919.051,VALID,0,VALID,99.5883,VALID,0.0679233,VALID,20.1036,VALID,90,VALID,0.420603,
2005-07-12, 00:47:00,VALID,919.025,VALID,0,VALID,99.6811,VALID,0.0169808,VALID,20.12,VALID,90,VALID,0.219939,
2005-07-12, 00:48:00,VALID,919.015,VALID,0,VALID,99.7052,VALID,0.0339617,VALID,20.1262,VALID,90,VALID,0,
2005-07-12, 00:49:00,VALID,919.01,VALID,0,VALID,99.6289,VALID,0.0169808,VALID,20.13,VALID,90,VALID,0,
2005-07-12, 00:50:00,VALID,919.003,VALID,0,VALID,99.5946,VALID,0.0169808,VALID,20.1267,VALID,90,VALID,0.00113932,
2005-07-12, 00:51:00,VALID,918.992,VALID,0,VALID,99.6353,VALID,0.0169808,VALID,20.1262,VALID,90,VALID,0,
2005-07-12, 00:52:00,VALID,918.994,VALID,0,VALID,99.6366,VALID,0.0339617,VALID,20.1354,VALID,90,VALID,0,
2005-07-12, 00:53:00,VALID,918.991,VALID,0,VALID,99.6162,VALID,0.0169808,VALID,20.1424,VALID,90,VALID,0,
2005-07-12, 00:54:00,VALID,918.977,VALID,0,VALID,99.5209,VALID,0,VALID,20.1367,VALID,90,VALID,0,
2005-07-12, 00:55:00,VALID,918.979,VALID,0,VALID,99.5857,VALID,0.0509425,VALID,20.1068,VALID,29,VALID,0.308308,
2005-07-12, 00:56:00,VALID,918.98,VALID,0,VALID,99.7917,VALID,0.0679233,VALID,20.1034,VALID,337,VALID,0.383539,
2005-07-12, 00:57:00,VALID,918.976,VALID,0,VALID,99.8706,VALID,0.0339617,VALID,20.0909,VALID,293,VALID,0.457217,
2005-07-12, 00:58:00,VALID,918.977,VALID,0,VALID,99.9875,VALID,-0.0679233,VALID,20.0989,VALID,292,VALID,0.104492,
2005-07-12, 00:59:00,VALID,918.98,VALID,0,VALID,100,VALID,-0.0849042,VALID,20.118,VALID,292,VALID,0.00417878,
2005-07-12, 01:00:00,VALID,918.987,VALID,0,VALID,100,VALID,-0.101885,VALID,20.1046,VALID,292,VALID,0.0809832,
2005-07-12, 01:01:00,VALID,918.993,VALID,0,VALID,100,VALID,-0.0679233,VALID,20.1084,VALID,292,VALID,0,
2005-07-12, 01:02:00,VALID,919.002,VALID,0,VALID,100,VALID,-0.0679233,VALID,20.1113,VALID,292,VALID,0.010831,
2005-07-12, 01:03:00,VALID,919.007,VALID,0,VALID,100,VALID,-0.0679233,VALID,20.092,VALID,292,VALID,0.0133929,
2005-07-12, 01:04:00,VALID,919.015,VALID,0,VALID,100,VALID,-0.101885,VALID,20.1019,VALID,292,VALID,0.0706676,
2005-07-12, 01:05:00,VALID,919.021,VALID,0,VALID,100,VALID,-0.101885,VALID,20.0852,VALID,292,VALID,0.261628,
2005-07-12, 01:06:00,VALID,919.031,VALID,0,VALID,100,VALID,-0.0679233,VALID,20.0691,VALID,292,VALID,0.177539,
2005-07-12, 01:07:00,VALID,919.035,VALID,0,VALID,100,VALID,-0.0169808,VALID,20.0629,VALID,292,VALID,0.123402,
2005-07-12, 01:08:00,VALID,919.035,VALID,0,VALID,100,VALID,-0.0679233,VALID,20.05,VALID,292,VALID,0.130526,
2005-07-12, 01:09:00,VALID,919.032,VALID,0,VALID,100,VALID,-0.0509425,VALID,20.0403,VALID,291,VALID,0.365589,
2005-07-12, 01:10:00,VALID,919.033,VALID,0,VALID,100,VALID,-0.0679233,VALID,20.0309,VALID,289,VALID,0.078683,
2005-07-12, 01:11:00,VALID,919.026,VALID,0,VALID,100,VALID,-0.0509425,VALID,20.0403,VALID,289,VALID,0,
2005-07-12, 01:12:00,VALID,919.022,VALID,0,VALID,100,VALID,-0.0169808,VALID,20.0462,VALID,289,VALID,0,
2005-07-12, 01:13:00,VALID,919.003,VALID,0,VALID,100,VALID,0.0679233,VALID,20.0746,VALID,289,VALID,0.000868056,
2005-07-12, 01:14:00,VALID,918.999,VALID,0,VALID,100,VALID,0.0169808,VALID,20.1143,VALID,289,VALID,0,
2005-07-12, 01:15:00,VALID,918.979,VALID,0,VALID,100,VALID,0.0169808,VALID,20.1257,VALID,289,VALID,0,
2005-07-12, 01:16:00,VALID,918.964,VALID,0,VALID,100,VALID,0.0169808,VALID,20.1456,VALID,289,VALID,0,
2005-07-12, 01:17:00,VALID,918.965,VALID,0,VALID,100,VALID,0,VALID,20.1483,VALID,289,VALID,0.10665,
2005-07-12, 01:18:00,VALID,918.941,VALID,0,VALID,100,VALID,0.0339617,VALID,20.1744,VALID,313,VALID,0.447493,
2005-07-12, 01:19:00,VALID,918.939,VALID,0,VALID,100,VALID,0.0679233,VALID,20.1677,VALID,316,VALID,0.311257,
2005-07-12, 01:20:00,VALID,918.935,VALID,0,VALID,100,VALID,0.0509425,VALID,20.1935,VALID,329,VALID,0.423828,
2005-07-12, 01:21:00,VALID,918.951,VALID,0,VALID,100,VALID,0.0339617,VALID,20.2263,VALID,346,VALID,0.512251,
2005-07-12, 01:22:00,VALID,918.958,VALID,0,VALID,100,VALID,0.0509425,VALID,20.2164,VALID,346,VALID,0.569727,
2005-07-12, 01:23:00,VALID,918.968,VALID,0,VALID,100,VALID,0.0509425,VALID,20.1905,VALID,346,VALID,0.312872,
2005-07-12, 01:24:00,VALID,918.986,VALID,0,VALID,100,VALID,0.0339617,VALID,20.165,VALID,346,VALID,0.53125,
2005-07-12, 01:25:00,VALID,918.992,VALID,0,VALID,100,VALID,0.0849042,VALID,20.1518,VALID,1,VALID,0.584666,
2005-07-12, 01:26:00,VALID,919.007,VALID,0,VALID,100,VALID,0.0509425,VALID,20.1515,VALID,350,VALID,0.927202,
2005-07-12, 01:27:00,VALID,918.986,VALID,0.2,VALID,100,VALID,0.0679233,VALID,20.1066,VALID,340,VALID,0.643029,
2005-07-12, 01:28:00,VALID,919.008,VALID,0,VALID,100,VALID,0,VALID,20.0872,VALID,12,VALID,0.715021,
2005-07-12, 01:29:00,VALID,919.005,VALID,0,VALID,100,VALID,0.0509425,VALID,20.0842,VALID,352,VALID,0.692406,
2005-07-12, 01:30:00,VALID,918.984,VALID,0,VALID,100,VALID,0.0849042,VALID,20.0189,VALID,7,VALID,0.519176,
2005-07-12, 01:31:00,VALID,918.983,VALID,0,VALID,100,VALID,0.0509425,VALID,19.9834,VALID,23,VALID,1.63821,
2005-07-12, 01:32:00,VALID,919.03,VALID,0.2,VALID,100,VALID,0.0509425,VALID,19.9744,VALID,22,VALID,1.68027,
2005-07-12, 01:33:00,VALID,919.029,VALID,0,VALID,100,VALID,0.0169808,VALID,19.961,VALID,28,VALID,0.586664,
2005-07-12, 01:34:00,VALID,919.027,VALID,0,VALID,99.9179,VALID,0.0849042,VALID,19.9193,VALID,10,VALID,1.97142,
2005-07-12, 01:35:00,VALID,919.007,VALID,0,VALID,99.353,VALID,0.0679233,VALID,19.809,VALID,351,VALID,2.70004,
2005-07-12, 01:36:00,VALID,919.013,VALID,0,VALID,98.9156,VALID,0.0509425,VALID,19.7293,VALID,360,VALID,1.51651,
2005-07-12, 01:37:00,VALID,919.015,VALID,0,VALID,99.1572,VALID,0.0339617,VALID,19.6997,VALID,6,VALID,0.996911,
2005-07-12, 01:38:00,VALID,918.995,VALID,0,VALID,98.9728,VALID,0.0679233,VALID,19.6481,VALID,348,VALID,1.71224,
2005-07-12, 01:39:00,VALID,918.992,VALID,0,VALID,98.8762,VALID,0.0169808,VALID,19.6064,VALID,11,VALID,1.41094,
2005-07-12, 01:40:00,VALID,919.009,VALID,0,VALID,99.1368,VALID,0.0169808,VALID,19.5902,VALID,2,VALID,1.93502,
2005-07-12, 01:41:00,VALID,918.985,VALID,0,VALID,99.2169,VALID,0,VALID,19.5353,VALID,1,VALID,1.7487,
2005-07-12, 01:42:00,VALID,918.978,VALID,0,VALID,99.2564,VALID,0,VALID,19.4904,VALID,5,VALID,1.66704,
2005-07-12, 01:43:00,VALID,918.945,VALID,0,VALID,99.0555,VALID,-0.0339617,VALID,19.4037,VALID,2,VALID,1.75679,
2005-07-12, 01:44:00,VALID,918.945,VALID,0.2,VALID,99.3556,VALID,-0.0849042,VALID,19.4081,VALID,15,VALID,2.08848,
2005-07-12, 01:45:00,VALID,918.942,VALID,0,VALID,99.3962,VALID,-0.0679233,VALID,19.3721,VALID,343,VALID,1.56268,
2005-07-12, 01:46:00,VALID,918.932,VALID,0,VALID,99.3136,VALID,-0.0849042,VALID,19.3306,VALID,16,VALID,2.14915,
2005-07-12, 01:47:00,VALID,918.927,VALID,0.2,VALID,99.4204,VALID,-0.0509425,VALID,19.2847,VALID,350,VALID,2.03199,
2005-07-12, 01:48:00,VALID,918.915,VALID,0,VALID,99.4611,VALID,-0.0509425,VALID,19.2335,VALID,10,VALID,2.02244,
2005-07-12, 01:49:00,VALID,918.887,VALID,0.2,VALID,99.6378,VALID,-0.0339617,VALID,19.1911,VALID,7,VALID,1.4838,
2005-07-12, 01:50:00,VALID,918.887,VALID,0,VALID,99.9324,VALID,-0.0169808,VALID,19.1916,VALID,12,VALID,2.4194,
2005-07-12, 01:51:00,VALID,918.909,VALID,0.2,VALID,99.6315,VALID,-0.0169808,VALID,19.1141,VALID,320,VALID,2.10156,
2005-07-12, 01:52:00,VALID,918.899,VALID,0,VALID,99.9151,VALID,-0.0679233,VALID,19.0883,VALID,360,VALID,1.53234,
2005-07-12, 01:53:00,VALID,918.901,VALID,0.2,VALID,99.9954,VALID,-0.0509425,VALID,19.056,VALID,5,VALID,0.912997,
2005-07-12, 01:54:00,VALID,918.876,VALID,0,VALID,100,VALID,-0.0169808,VALID,19.0361,VALID,346,VALID,0.824728,
2005-07-12, 01:55:00,VALID,918.855,VALID,0,VALID,100,VALID,-0.0679233,VALID,19.0138,VALID,11,VALID,0.571837,
2005-07-12, 01:56:00,VALID,918.847,VALID,0,VALID,100,VALID,-0.0679233,VALID,19.0341,VALID,17,VALID,1.20389,
2005-07-12, 01:57:00,VALID,918.842,VALID,0,VALID,100,VALID,-0.0339617,VALID,19.0242,VALID,25,VALID,0.837936,
2005-07-12, 01:58:00,VALID,918.868,VALID,0.2,VALID,100,VALID,-0.0509425,VALID,19.014,VALID,11,VALID,1.33507,
2005-07-12, 01:59:00,VALID,918.857,VALID,0,VALID,100,VALID,-0.0849042,VALID,19.0341,VALID,31,VALID,0.72207,
2005-07-12, 02:00:00,VALID,918.862,VALID,0,VALID,100,VALID,-0.0849042,VALID,19.0244,VALID,29,VALID,1.21484,
2005-07-12, 02:01:01,VALID,918.886,VALID,0,VALID,100,VALID,-0.0849042,VALID,19.0075,VALID,307,VALID,0.856399,
2005-07-12, 02:02:00,VALID,918.889,VALID,0,VALID,100,VALID,-0.0679233,VALID,18.9986,VALID,354,VALID,0.900799,
2005-07-12, 02:03:00,VALID,918.885,VALID,0,VALID,100,VALID,-0.0679233,VALID,18.9822,VALID,16,VALID,1.36944,
2005-07-12, 02:04:00,VALID,918.89,VALID,0,VALID,100,VALID,-0.0679233,VALID,18.9827,VALID,352,VALID,1.28961,
2005-07-12, 02:05:00,VALID,918.905,VALID,0,VALID,100,VALID,-0.0509425,VALID,18.9499,VALID,351,VALID,1.22673,
2005-07-12, 02:06:01,VALID,918.93,VALID,0,VALID,100,VALID,-0.0849042,VALID,18.9243,VALID,306,VALID,0.579883,
2005-07-12, 02:07:00,VALID,918.941,VALID,0,VALID,100,VALID,-0.101885,VALID,18.8985,VALID,1,VALID,0.996094,
2005-07-12, 02:08:01,VALID,918.94,VALID,0,VALID,100,VALID,-0.0849042,VALID,18.8886,VALID,17,VALID,1.43164,
2005-07-12, 02:09:01,VALID,918.924,VALID,0,VALID,100,VALID,-0.0509425,VALID,18.9089,VALID,1,VALID,1.56377,
2005-07-12, 02:10:00,VALID,918.931,VALID,0,VALID,100,VALID,-0.0509425,VALID,18.8697,VALID,12,VALID,1.24047,
2005-07-12, 02:11:00,VALID,918.93,VALID,0,VALID,100,VALID,-0.0849042,VALID,18.8764,VALID,355,VALID,0.903161,
2005-07-12, 02:12:00,VALID,918.94,VALID,0,VALID,100,VALID,-0.0509425,VALID,18.866,VALID,354,VALID,1.14183,
2005-07-12, 02:13:00,VALID,918.936,VALID,0,VALID,100,VALID,0,VALID,18.833,VALID,354,VALID,1.7983,
2005-07-12, 02:14:01,VALID,918.938,VALID,0,VALID,100,VALID,0.0169808,VALID,18.7913,VALID,352,VALID,2.443,
2005-07-12, 02:15:00,VALID,918.943,VALID,0,VALID,100,VALID,0,VALID,18.7846,VALID,1,VALID,1.53797,
2005-07-12, 02:16:00,VALID,918.954,VALID,0,VALID,100,VALID,-0.0169808,VALID,18.8046,VALID,14,VALID,1.99945,
2005-07-12, 02:17:00,VALID,918.953,VALID,0,VALID,100,VALID,0,VALID,18.7654,VALID,322,VALID,1.51581,
2005-07-12, 02:18:01,VALID,918.954,VALID,0,VALID,100,VALID,0,VALID,18.7622,VALID,13,VALID,1.87518,
2005-07-12, 02:19:00,VALID,918.942,VALID,0,VALID,100,VALID,0.0169808,VALID,18.7624,VALID,356,VALID,1.13938,
2005-07-12, 02:20:00,VALID,918.949,VALID,0,VALID,100,VALID,0,VALID,18.7523,VALID,343,VALID,1.24182,
2005-07-12, 02:21:00,VALID,918.961,VALID,0,VALID,100,VALID,0,VALID,18.7297,VALID,338,VALID,1.14634,
2005-07-12, 02:22:00,VALID,918.961,VALID,0,VALID,100,VALID,0,VALID,18.7237,VALID,343,VALID,1.41685,
2005-07-12, 02:23:01,VALID,918.939,VALID,0,VALID,100,VALID,-0.0169808,VALID,18.684,VALID,13,VALID,1.91946,
2005-07-12, 02:24:01,VALID,918.931,VALID,0,VALID,100,VALID,0,VALID,18.6787,VALID,315,VALID,1.3084,
2005-07-12, 02:25:00,VALID,918.957,VALID,0,VALID,100,VALID,-0.0169808,VALID,18.6624,VALID,351,VALID,2.51395,
2005-07-12, 02:26:00,VALID,918.954,VALID,0.2,VALID,100,VALID,0.0169808,VALID,18.6388,VALID,21,VALID,1.95579,
2005-07-12, 02:27:01,VALID,918.958,VALID,0,VALID,99.909,VALID,-0.0339617,VALID,18.6266,VALID,343,VALID,2.19313,
2005-07-12, 02:28:01,VALID,918.941,VALID,0,VALID,99.5666,VALID,-0.0849042,VALID,18.5955,VALID,15,VALID,2.99721,
2005-07-12, 02:29:00,VALID,918.976,VALID,0,VALID,99.704,VALID,-0.101885,VALID,18.6181,VALID,24,VALID,1.94215,
2005-07-12, 02:30:00,VALID,918.992,VALID,0,VALID,99.8057,VALID,-0.101885,VALID,18.6345,VALID,10,VALID,1.81191,
2005-07-12, 02:31:00,VALID,919.021,VALID,0,VALID,99.5501,VALID,-0.0849042,VALID,18.5923,VALID,37,VALID,1.54287,
2005-07-12, 02:32:00,VALID,919.053,VALID,0,VALID,99.4458,VALID,-0.101885,VALID,18.5572,VALID,357,VALID,2.52885,
2005-07-12, 02:33:01,VALID,919.017,VALID,0,VALID,99.1966,VALID,-0.0679233,VALID,18.5374,VALID,18,VALID,3.59832,
2005-07-12, 02:34:00,VALID,919.039,VALID,0,VALID,98.8215,VALID,-0.0849042,VALID,18.5217,VALID,341,VALID,2.26835,
2005-07-12, 02:35:00,VALID,919.041,VALID,0,VALID,98.2149,VALID,-0.0849042,VALID,18.5148,VALID,11,VALID,2.80748,
2005-07-12, 02:36:00,VALID,919.081,VALID,0,VALID,98.2315,VALID,-0.0849042,VALID,18.5411,VALID,5,VALID,1.63175,
2005-07-12, 02:37:01,VALID,919.069,VALID,0,VALID,98.0471,VALID,-0.101885,VALID,18.5217,VALID,5,VALID,2.00614,
2005-07-12, 02:38:01,VALID,919.068,VALID,0,VALID,97.9733,VALID,-0.118866,VALID,18.5123,VALID,4,VALID,1.71675,
2005-07-12, 02:39:00,VALID,919.057,VALID,0.2,VALID,98.2556,VALID,-0.101885,VALID,18.5026,VALID,360,VALID,2.0496,
2005-07-12, 02:40:00,VALID,919.044,VALID,0,VALID,98.1602,VALID,-0.101885,VALID,18.4768,VALID,14,VALID,1.96076,
2005-07-12, 02:41:01,VALID,919.04,VALID,0,VALID,98.2213,VALID,-0.118866,VALID,18.4641,VALID,348,VALID,1.48958,
2005-07-12, 02:42:00,VALID,919.032,VALID,0,VALID,97.6834,VALID,-0.0679233,VALID,18.4187,VALID,355,VALID,2.61217,
2005-07-12, 02:43:00,VALID,919.087,VALID,0,VALID,97.349,VALID,0.0169808,VALID,18.3848,VALID,355,VALID,1.81193,
2005-07-12, 02:44:01,VALID,919.062,VALID,0,VALID,97.8284,VALID,0.0169808,VALID,18.3751,VALID,12,VALID,2.13785,
2005-07-12, 02:45:00,VALID,919.061,VALID,0,VALID,97.471,VALID,0,VALID,18.3269,VALID,360,VALID,2.1543,
2005-07-12, 02:46:00,VALID,919.071,VALID,0,VALID,97.6592,VALID,0.0169808,VALID,18.2981,VALID,352,VALID,2.28274,
2005-07-12, 02:47:00,VALID,919.059,VALID,0,VALID,98.1793,VALID,0.0169808,VALID,18.272,VALID,16,VALID,2.09299,
2005-07-12, 02:48:00,VALID,919.067,VALID,0,VALID,98.5417,VALID,0.0509425,VALID,18.2427,VALID,348,VALID,1.43921,
2005-07-12, 02:49:00,VALID,919.031,VALID,0,VALID,98.1641,VALID,0.0339617,VALID,18.1948,VALID,333,VALID,2.55664,
2005-07-12, 02:50:00,VALID,919.058,VALID,0,VALID,98.1768,VALID,0,VALID,18.1754,VALID,353,VALID,1.79197,
2005-07-12, 02:51:00,VALID,919.074,VALID,0,VALID,98.2912,VALID,0,VALID,18.1468,VALID,5,VALID,1.84859,
2005-07-12, 02:52:00,VALID,919.024,VALID,0,VALID,98.2836,VALID,0,VALID,18.0945,VALID,1,VALID,2.63814,
2005-07-12, 02:53:00,VALID,919.046,VALID,0,VALID,98.6256,VALID,0.0169808,VALID,18.085,VALID,341,VALID,1.68025,
2005-07-12, 02:54:01,VALID,919.062,VALID,0,VALID,98.838,VALID,0,VALID,18.0433,VALID,358,VALID,2.00977,
2005-07-12, 02:55:01,VALID,919.065,VALID,0,VALID,99.1089,VALID,0.0169808,VALID,18.0175,VALID,358,VALID,1.55755,
2005-07-12, 02:56:01,VALID,919.062,VALID,0,VALID,99.1788,VALID,-0.0169808,VALID,18.002,VALID,3,VALID,1.63104,
2005-07-12, 02:57:00,VALID,919.06,VALID,0,VALID,99.3479,VALID,0.0339617,VALID,17.9818,VALID,360,VALID,1.40867,
2005-07-12, 02:58:01,VALID,919.011,VALID,0,VALID,99.4408,VALID,0.0169808,VALID,17.9594,VALID,9,VALID,1.74665,
2005-07-12, 02:59:01,VALID,919.012,VALID,0,VALID,99.6582,VALID,0.0169808,VALID,17.9398,VALID,17,VALID,2.22005,
2005-07-12, 03:00:00,VALID,919.035,VALID,0,VALID,99.7688,VALID,0,VALID,17.9273,VALID,352,VALID,1.55537,
2005-07-12, 03:01:01,VALID,919,VALID,0,VALID,99.7319,VALID,0,VALID,17.8921,VALID,359,VALID,1.75854,
2005-07-12, 03:02:00,VALID,919.018,VALID,0,VALID,99.5132,VALID,-0.0339617,VALID,17.9054,VALID,337,VALID,1.90387,
2005-07-12, 03:03:00,VALID,919.017,VALID,0,VALID,99.2971,VALID,-0.0339617,VALID,17.9047,VALID,351,VALID,0.847842,
2005-07-12, 03:04:00,VALID,919.006,VALID,0,VALID,99.3924,VALID,0,VALID,17.931,VALID,20,VALID,2.18572,
2005-07-12, 03:05:00,VALID,919.023,VALID,0,VALID,99.4496,VALID,0.0169808,VALID,17.9372,VALID,7,VALID,2.48512,
2005-07-12, 03:06:01,VALID,919.009,VALID,0,VALID,99.3199,VALID,0,VALID,17.9276,VALID,4,VALID,1.94722,
2005-07-12, 03:07:00,VALID,919.055,VALID,0,VALID,99.4268,VALID,0,VALID,17.9054,VALID,356,VALID,1.55428,
2005-07-12, 03:08:00,VALID,919.014,VALID,0,VALID,99.5437,VALID,-0.0169808,VALID,17.899,VALID,5,VALID,1.88872,
2005-07-12, 03:09:00,VALID,919.067,VALID,0,VALID,99.6048,VALID,-0.0169808,VALID,17.9024,VALID,343,VALID,1.61785,
2005-07-12, 03:10:00,VALID,919.115,VALID,0,VALID,99.5539,VALID,0,VALID,17.8854,VALID,237,VALID,0.599702,
2005-07-12, 03:11:00,VALID,919.12,VALID,0.2,VALID,99.5158,VALID,0.0169808,VALID,17.8824,VALID,108,VALID,0.322218,
2005-07-12, 03:12:00,VALID,919.123,VALID,0,VALID,99.807,VALID,0.0169808,VALID,17.899,VALID,22,VALID,1.41425,
2005-07-12, 03:13:00,VALID,919.131,VALID,0,VALID,99.5005,VALID,0,VALID,17.8983,VALID,13,VALID,2.09499,
2005-07-12, 03:14:01,VALID,919.175,VALID,0,VALID,99.1457,VALID,0.0339617,VALID,17.8983,VALID,321,VALID,1.62448,
2005-07-12, 03:15:01,VALID,919.18,VALID,0,VALID,99.0262,VALID,0,VALID,17.8757,VALID,1,VALID,1.02834,
2005-07-12, 03:16:01,VALID,919.183,VALID,0.2,VALID,99.1674,VALID,0,VALID,17.8566,VALID,341,VALID,0.918636,
2005-07-12, 03:17:01,VALID,919.174,VALID,0,VALID,99.2907,VALID,-0.0169808,VALID,17.837,VALID,358,VALID,1.16425,
2005-07-12, 03:18:00,VALID,919.175,VALID,0,VALID,99.6251,VALID,0.0169808,VALID,17.8434,VALID,18,VALID,1.42169,
2005-07-12, 03:19:01,VALID,919.188,VALID,0,VALID,99.84,VALID,0.0169808,VALID,17.8469,VALID,4,VALID,1.26042,
2005-07-12, 03:20:00,VALID,919.245,VALID,0,VALID,99.6798,VALID,-0.0169808,VALID,17.8054,VALID,288,VALID,1.20294,
2005-07-12, 03:21:00,VALID,919.197,VALID,0.2,VALID,99.7675,VALID,0,VALID,17.76,VALID,323,VALID,0.977865,
2005-07-12, 03:22:01,VALID,919.12,VALID,0,VALID,99.8057,VALID,0.0169808,VALID,17.7369,VALID,21,VALID,2.0055,
2005-07-12, 03:23:00,VALID,919.139,VALID,0,VALID,99.9827,VALID,0.0339617,VALID,17.7371,VALID,4,VALID,0.6,
2005-07-12, 03:24:00,VALID,919.126,VALID,0,VALID,100,VALID,0.0339617,VALID,17.7242,VALID,290,VALID,0.790039,
2005-07-12, 03:25:00,VALID,919.165,VALID,0,VALID,99.8133,VALID,0,VALID,17.6989,VALID,7,VALID,1.55323,
2005-07-12, 03:26:01,VALID,919.173,VALID,0,VALID,99.8438,VALID,0,VALID,17.7406,VALID,14,VALID,1.87573,
2005-07-12, 03:27:00,VALID,919.146,VALID,0.2,VALID,99.9715,VALID,0,VALID,17.7344,VALID,24,VALID,1.34464,
2005-07-12, 03:28:00,VALID,919.106,VALID,0,VALID,99.9931,VALID,-0.0169808,VALID,17.7215,VALID,34,VALID,1.64577,
2005-07-12, 03:29:00,VALID,919.107,VALID,0,VALID,99.9878,VALID,0,VALID,17.7021,VALID,27,VALID,2.02363,
2005-07-12, 03:30:01,VALID,919.073,VALID,0,VALID,100,VALID,0,VALID,17.7085,VALID,12,VALID,1.39902,
2005-07-12, 03:31:00,VALID,919.025,VALID,0,VALID,99.9601,VALID,0,VALID,17.7085,VALID,24,VALID,2.21367,
2005-07-12, 03:32:00,VALID,919.049,VALID,0,VALID,99.9201,VALID,0,VALID,17.7253,VALID,276,VALID,1.03616,
2005-07-12, 03:33:00,VALID,919.046,VALID,0,VALID,99.9926,VALID,-0.0509425,VALID,17.712,VALID,347,VALID,0.803819,
2005-07-12, 03:34:00,VALID,919.024,VALID,0,VALID,100,VALID,-0.0339617,VALID,17.7182,VALID,30,VALID,1.86682,
2005-07-12, 03:35:00,VALID,918.999,VALID,0,VALID,100,VALID,-0.0169808,VALID,17.7251,VALID,35,VALID,1.86374,
2005-07-12, 03:36:01,VALID,919.019,VALID,0,VALID,100,VALID,-0.0169808,VALID,17.7187,VALID,5,VALID,1.98681,
2005-07-12, 03:37:00,VALID,919.004,VALID,0,VALID,100,VALID,0,VALID,17.7085,VALID,1,VALID,2.01829,